When you browse on this site, cookies collect data to enhance your experience and personalize the content and advertising you see.
Visit our Privacy Policy to learn more. By continuing to use the site, you agree to this use of cookies and data.
  • Em Portugal
  • Lista de países
  • Para 7 dias
  • Temperatura da água
  • Mapas de satélite
  • Mapa do tempo
  • Widgets de tempo
  • user-avatar
    Iniciar Sessão

    Previsão horária em Chrzastowko

    Hoje, 10 Dezembro, Segunda-feira

    Tempo Temperatura Precipitação Vento Pressão Humidade
    00:00 +3°C° 0.4 mm 5 m/s 732 mmHg 89%
    01:00 +4°C° 0 mm 4 m/s 733 mmHg 89%
    02:00 +3°C° 0.2 mm 5 m/s 733 mmHg 84%
    03:00 +3°C° 0.2 mm 6 m/s 734 mmHg 80%
    04:00 +2°C° 0.2 mm 7 m/s 734 mmHg 75%
    05:00 +2°C° 0 mm 6 m/s 735 mmHg 75%
    06:00 +2°C° 0 mm 6 m/s 736 mmHg 75%
    07:00 +1°C° 0 mm 5 m/s 737 mmHg 77%
    08:00 +2°C° 0 mm 6 m/s 737 mmHg 76%
    09:00 +2°C° 0 mm 6 m/s 738 mmHg 75%
    10:00 +2°C° 0 mm 6 m/s 738 mmHg 73%
    11:00 +2°C° 0.1 mm 6 m/s 738 mmHg 72%
    12:00 +2°C° 0.1 mm 6 m/s 739 mmHg 70%
    13:00 +3°C° 0.1 mm 7 m/s 739 mmHg 69%
    14:00 +2°C° 0.1 mm 6 m/s 739 mmHg 70%
    15:00 +2°C° 0.1 mm 5 m/s 739 mmHg 72%
    16:00 +1°C° 0.1 mm 5 m/s 739 mmHg 74%
    17:00 +1°C° 0 mm 5 m/s 739 mmHg 76%
    18:00 +1°C° 0 mm 5 m/s 739 mmHg 78%
    19:00 0°C° 0 mm 5 m/s 739 mmHg 80%
    20:00 0°C° 0 mm 4 m/s 739 mmHg 82%
    21:00 0°C° 0 mm 4 m/s 739 mmHg 83%
    22:00 0°C° 0 mm 4 m/s 739 mmHg 85%
    23:00 0°C° 0.1 mm 4 m/s 739 mmHg 85%

    Amanhã, 11 Dezembro, Terça-feira

    Tempo Temperatura Precipitação Vento Pressão Humidade
    00:00 0°C° 0.1 mm 4 m/s 739 mmHg 85%
    01:00 0°C° 0.1 mm 4 m/s 739 mmHg 85%
    02:00 0°C° 0.3 mm 4 m/s 739 mmHg 85%
    03:00 +1°C° 0.3 mm 3 m/s 739 mmHg 86%
    04:00 +1°C° 0.3 mm 3 m/s 739 mmHg 87%
    05:00 +1°C° 0.1 mm 3 m/s 740 mmHg 88%
    06:00 +2°C° 0.1 mm 2 m/s 740 mmHg 90%
    07:00 +2°C° 0.1 mm 2 m/s 740 mmHg 91%
    08:00 +2°C° 0 mm 2 m/s 741 mmHg 90%
    09:00 +2°C° 0 mm 2 m/s 741 mmHg 89%
    10:00 +2°C° 0 mm 2 m/s 742 mmHg 89%
    11:00 +3°C° 0 mm 2 m/s 742 mmHg 87%
    12:00 +2°C° 0 mm 3 m/s 743 mmHg 86%
    13:00 +2°C° 0 mm 3 m/s 743 mmHg 85%
    14:00 +2°C° 0 mm 3 m/s 744 mmHg 86%
    15:00 +2°C° 0 mm 3 m/s 744 mmHg 87%
    16:00 +1°C° 0 mm 3 m/s 745 mmHg 88%
    17:00 +1°C° 0 mm 3 m/s 745 mmHg 88%
    18:00 +1°C° 0 mm 3 m/s 746 mmHg 89%
    19:00 0°C° 0 mm 3 m/s 746 mmHg 89%
    20:00 0°C° 0 mm 3 m/s 747 mmHg 89%
    21:00 0°C° 0 mm 3 m/s 747 mmHg 90%
    22:00 -1°C° 0 mm 2 m/s 748 mmHg 91%
    23:00 -1°C° 0 mm 2 m/s 748 mmHg 91%

    Depois de amanhã, 12 Dezembro, Quarta-feira

    Tempo Temperatura Precipitação Vento Pressão Humidade
    00:00 -1°C° 0 mm 2 m/s 749 mmHg 92%
    01:00 -1°C° 0 mm 2 m/s 749 mmHg 93%
    02:00 -1°C° 0 mm 2 m/s 749 mmHg 93%
    03:00 -1°C° 0 mm 2 m/s 750 mmHg 93%
    04:00 -2°C° 0 mm 2 m/s 750 mmHg 93%
    05:00 -2°C° 0 mm 2 m/s 750 mmHg 93%
    06:00 -2°C° 0 mm 2 m/s 751 mmHg 93%
    07:00 0°C° 0 mm 1 m/s 751 mmHg 93%
    08:00 +1°C° 0 mm 1 m/s 751 mmHg 91%
    09:00 +1°C° 0 mm 1 m/s 752 mmHg 89%
    10:00 +2°C° 0 mm 1 m/s 752 mmHg 87%
    11:00 +2°C° 0 mm 1 m/s 752 mmHg 85%
    12:00 +3°C° 0 mm 1 m/s 752 mmHg 83%
    13:00 +3°C° 0 mm 1 m/s 752 mmHg 82%
    14:00 +3°C° 0 mm 1 m/s 752 mmHg 85%
    15:00 +2°C° 0 mm 1 m/s 752 mmHg 88%
    16:00 +2°C° 0 mm 1 m/s 752 mmHg 92%
    17:00 +2°C° 0 mm 1 m/s 752 mmHg 93%
    18:00 +2°C° 0 mm 1 m/s 753 mmHg 93%
    19:00 +2°C° 0 mm 1 m/s 753 mmHg 94%
    20:00 +1°C° 0 mm 1 m/s 753 mmHg 94%
    21:00 -1°C° 0 mm 2 m/s 753 mmHg 95%
    22:00 -1°C° 0 mm 2 m/s 753 mmHg 95%
    23:00 -1°C° 0 mm 2 m/s 753 mmHg 94%

    13 Dezembro, Quinta-feira

    Tempo Temperatura Precipitação Vento Pressão Humidade
    00:00 -1°C° 0 mm 2 m/s 753 mmHg 94%
    01:00 -1°C° 0 mm 2 m/s 753 mmHg 93%
    02:00 -1°C° 0 mm 2 m/s 753 mmHg 92%
    03:00 -1°C° 0 mm 2 m/s 753 mmHg 91%
    04:00 -1°C° 0 mm 2 m/s 752 mmHg 90%
    05:00 -1°C° 0 mm 2 m/s 752 mmHg 90%
    06:00 -1°C° 0 mm 2 m/s 752 mmHg 91%
    07:00 +1°C° 0 mm 1 m/s 752 mmHg 91%
    08:00 -1°C° 0 mm 2 m/s 752 mmHg 89%
    09:00 +1°C° 0 mm 2 m/s 752 mmHg 87%
    10:00 +1°C° 0 mm 2 m/s 752 mmHg 85%
    11:00 +1°C° 0 mm 2 m/s 751 mmHg 83%
    12:00 0°C° 0 mm 3 m/s 751 mmHg 80%
    13:00 0°C° 0 mm 3 m/s 751 mmHg 78%
    14:00 +1°C° 0 mm 2 m/s 751 mmHg 80%
    15:00 +1°C° 0 mm 2 m/s 751 mmHg 82%
    16:00 -1°C° 0 mm 2 m/s 751 mmHg 84%
    17:00 -1°C° 0 mm 2 m/s 751 mmHg 86%
    18:00 -1°C° 0 mm 2 m/s 751 mmHg 87%
    19:00 -2°C° 0 mm 2 m/s 751 mmHg 88%
    20:00 0°C° 0 mm 1 m/s 751 mmHg 88%
    21:00 0°C° 0 mm 1 m/s 752 mmHg 89%
    22:00 0°C° 0 mm 1 m/s 752 mmHg 89%
    23:00 0°C° 0 mm 1 m/s 752 mmHg 89%

    14 Dezembro, Sexta-feira

    Tempo Temperatura Precipitação Vento Pressão Humidade
    00:00 0°C° 0 mm 1 m/s 752 mmHg 90%
    01:00 0°C° 0 mm 1 m/s 752 mmHg 90%
    02:00 0°C° 0 mm 1 m/s 753 mmHg 91%
    03:00 0°C° 0 mm 1 m/s 753 mmHg 93%
    04:00 -2°C° 0 mm 2 m/s 753 mmHg 94%
    05:00 -2°C° 0 mm 2 m/s 753 mmHg 94%
    06:00 -3°C° 0 mm 2 m/s 754 mmHg 94%
    07:00 -3°C° 0 mm 2 m/s 754 mmHg 95%
    08:00 -2°C° 0 mm 2 m/s 755 mmHg 93%
    09:00 -2°C° 0 mm 2 m/s 755 mmHg 91%
    10:00 -1°C° 0 mm 2 m/s 756 mmHg 89%
    11:00 -1°C° 0 mm 2 m/s 756 mmHg 87%
    12:00 -1°C° 0 mm 2 m/s 756 mmHg 85%
    13:00 +1°C° 0 mm 2 m/s 757 mmHg 83%
    14:00 -1°C° 0 mm 2 m/s 757 mmHg 86%
    15:00 -1°C° 0 mm 2 m/s 757 mmHg 88%
    16:00 -2°C° 0 mm 2 m/s 757 mmHg 91%
    17:00 -2°C° 0 mm 2 m/s 758 mmHg 91%
    18:00 -2°C° 0 mm 2 m/s 758 mmHg 91%
    19:00 -2°C° 0 mm 2 m/s 759 mmHg 91%
    20:00 -2°C° 0 mm 2 m/s 759 mmHg 91%
    21:00 -2°C° 0 mm 2 m/s 759 mmHg 91%
    22:00 -2°C° 0 mm 2 m/s 759 mmHg 91%
    23:00 0°C° 0 mm 1 m/s 760 mmHg 91%

    15 Dezembro, Sábado

    Tempo Temperatura Precipitação Vento Pressão Humidade
    00:00 0°C° 0 mm 1 m/s 760 mmHg 91%
    01:00 0°C° 0 mm 1 m/s 760 mmHg 91%
    02:00 0°C° 0 mm 1 m/s 760 mmHg 91%
    03:00 +1°C° 0 mm 1 m/s 760 mmHg 90%
    04:00 +1°C° 0 mm 1 m/s 761 mmHg 90%
    05:00 -1°C° 0 mm 2 m/s 761 mmHg 90%
    06:00 -2°C° 0 mm 2 m/s 761 mmHg 90%
    07:00 -2°C° 0 mm 2 m/s 761 mmHg 90%
    08:00 -1°C° 0 mm 2 m/s 761 mmHg 88%
    09:00 -1°C° 0 mm 2 m/s 762 mmHg 86%
    10:00 -1°C° 0 mm 3 m/s 762 mmHg 84%
    11:00 -1°C° 0 mm 3 m/s 762 mmHg 82%
    12:00 0°C° 0 mm 3 m/s 762 mmHg 80%
    13:00 +1°C° 0 mm 2 m/s 762 mmHg 78%
    14:00 -1°C° 0 mm 2 m/s 762 mmHg 82%
    15:00 -1°C° 0 mm 2 m/s 762 mmHg 86%
    16:00 -2°C° 0 mm 2 m/s 762 mmHg 90%
    17:00 -2°C° 0 mm 3 m/s 762 mmHg 90%
    18:00 -2°C° 0 mm 3 m/s 762 mmHg 91%
    19:00 -4°C° 0 mm 3 m/s 762 mmHg 92%
    20:00 -4°C° 0 mm 3 m/s 762 mmHg 91%
    21:00 -4°C° 0 mm 3 m/s 762 mmHg 91%
    22:00 -4°C° 0 mm 3 m/s 762 mmHg 90%
    23:00 -4°C° 0 mm 4 m/s 762 mmHg 90%
    Mostrar mais